Location: ?????
(55.8833°N, 37.6500°E)
Time: 10:38:16
(UTC+00:00)

Resurs 1-3 - Pass Details

Date: 27 February 2020
Orbit: 630 x 632 km, 97.9° (Epoch: 29 March)

Event Time Altitude Azimuth Distance (km) Brightness Sun altitude
Exits shadow 17:07:13 37° 133° (SE) 997 4.2 -18.8°
Maximum altitude 17:08:48 61° 69° (ENE) 724 3.6 -19.0°
Drops below altitude 10° 17:13:09 10° 350° (N) 2,029 6.5 -19.6°
Sets 17:15:23 0° 347° (NNW) 2,941 7.4 -19.9°
